map of DEL home
Great Circle Mapper logo
DEL - Airport
Location
City:  New Delhi, India
Name:Indira Gandhi International Airport
Old (Alt.):Palam Airport
ICAO / IATA:VIDP / DEL

Details
Type:Airport (Aerodrome, Airfield)
Use:Public/Civil, International (customs port of entry)
Latitude:2834'07"N (28.568728)
Longitude:7706'44"E (77.112136)
Elevation:777 ft (237 m)
Runways:3
Longest:14534 ft (4430 m), paved

Time
Time Zone:UTC+5:30
Local Time:

Weather
METAR:VIDP 020200Z 17004KT 2200 BR SCT040 FEW040CB SCT100 31/28 Q1000 NOSIG
TAF:VIDP 012100Z 0200/0306 12004KT 2500 BR FEW030 SCT100
BECMG 0206/0207 15008KT 4000 HZ SCT030 BKN090
TEMPO 0200/0203 FEW035CB
TEMPO 0209/0215 1500 TSRA FEW015 SCT025 FEW030CB BKN090
BECMG 0220/0221 15004KT 2500 BR
TEMPO 0223/0303 1500 TSRA FEW015 SCT025 FEW030CB BKN090

Related Locations
Nearby:
Farthest:IPC: 12034 mi / 19367 km
Easter Island (Isla de Pascua, Rapa Nui) [Mataveri Intl], VS, CL

Find:

   beyond  
but within

Other Information
Maps:
NOTAMs:
Links:
Sources:

  
flag of India   

Sectional Chart

Flight Planning
at skyvector.com

Satellite Image

Google Maps Satellite View

 

Copyright © 2004-2014 Karl L. Swartz. All rights reserved.
The Great Circle Mapper name and logo are trademarks of the Great Circle Mapper.
All other trademarks mentioned herein belong to their respective owners.
Please see credits for attibutions and further copyright information.

  Follow gcmap on Facebook Follow gcmap on Twitter

hCard Microformat

Geo Microformat